Flag for Sweden Weather past 2 weeks in Gävle, Sweden

Now
69 °F

Mild.


Feels Like: 69 °F
Forecast: 63 / 79 °F
Wind: 3 mph from South

Location: Films Kyrkby

Current Time: Jul 30, 2014 at 10:17:04 PM

Latest Report: Jul 30, 2014 at 9:00 PM


Visibility: 5 mi

Pressure: 29.67 "Hg

Humidity: 95%

Dew point: 67 °F

Location of GävleLocation

Historic Weather in Gävle — Graph

°F

Gävle temperature yesterday

Maximum temperature yesterday: 84 °F (at 1:00 PM)
Minimum temperature yesterday: 60 °F (at 5:00 AM)
Average temperature yesterday: 73 °F

Past Weeks' High & Low Weather Summary

 TemperatureHumidityPressure
High89 °F (Jul 26, 4:00 PM)100% (Jul 20, 5:00 AM)30.33 "Hg (Jul 20, 5:00 AM)
Low49 °F (Jul 23, 5:00 AM)31% (Jul 23, 3:00 PM)29.66 "Hg (Jul 30, 8:00 PM)
Average70 °F73%30.06 "Hg
* Reported Jul 15 9:00 PM — Jul 30 9:00 PM, Gävle, Weather by CustomWeather, © 2014

Note: Actual official high and low records may vary slightly from our data, if they occured in-between our weather recording intervals... More about our weather records

Advertising

Gävle weather history for previous 24 hours

 ConditionsComfort  
Time TempWeatherWind HumidityBarometerVisibility
9:00 PM
Jul 30
69 °FMild.3 mph95%29.67 "Hg5 mi
8:00 PM69 °FRain showers. Cloudy.2 mph96%29.66 "Hg4 mi
7:00 PM70 °FRain showers. Cloudy.3 mph93%29.67 "Hg7 mi
6:00 PM72 °FMild.3 mph87%29.67 "Hg12 mi
5:00 PM69 °FMild.2 mph95%29.67 "Hg6 mi
4:00 PM66 °FLots of rain. Cloudy.2 mph96%29.70 "Hg5 mi
3:00 PM66 °FLight mixture of precip. Cloudy.3 mph95%29.71 "Hg2 mi
2:00 PM78 °FWarm.5 mph67%29.70 "Hg17 mi
1:00 PM82 °FWarm.6 mph58%29.68 "Hg15 mi
12:00 PM80 °FWarm.3 mph63%29.70 "Hg17 mi
11:00 AM80 °FWarm.3 mph66%29.72 "Hg15 mi
10:00 AM80 °FWarm.3 mph69%29.73 "Hg14 mi
9:00 AM77 °FMild.2 mph73%29.74 "Hg13 mi
8:00 AM72 °FMild.3 mph84%29.75 "Hg10 mi
7:00 AM68 °FMild.2 mph90%29.75 "Hg9 mi
6:00 AM64 °FFog.1 mph96%29.75 "Hg4 mi
5:00 AM64 °FMild.1 mph95%29.76 "Hg6 mi
4:00 AM63 °FFog.1 mph98%29.77 "Hg6 mi
3:00 AM64 °FMild.1 mph96%29.76 "Hg7 mi
2:00 AM63 °FFog.1 mph96%29.78 "Hg4 mi
1:00 AM64 °FMild.1 mph97%29.78 "Hg8 mi
12:00 AM64 °FMild.No wind95%29.78 "Hg11 mi
11:00 PM
Jul 29
67 °FMild.1 mph89%29.78 "Hg22 mi
10:00 PM70 °FMild.2 mph83%29.78 "Hg22 mi
Weather by CustomWeather, © 2014

See weather overviewHow to use our weather pages